CW9825 Weather Reports


Display with metric or nautical units.
time (UTC)temp
F
wind
direction
speed
MPH
gust
MPH
rain 1hr
in
rain 24hr
in
rain mn
in
humidity
%
barometer
mb
20210724214005 90 260 9.0 20.0 0.00 0.01 0.01 24 1013.2
20210724213504 90 248 10.0 20.0 0.00 0.01 0.01 24 1013.2
20210724212003 90 250 9.0 16.0 0.00 0.01 0.01 25 1013.2
20210724211502 90 296 8.0 17.0 0.00 0.01 0.01 25 1013.2
20210724211001 90 302 8.0 17.0 0.00 0.01 0.01 25 1013.3
20210724210503 90 277 9.0 18.0 0.00 0.01 0.01 27 1013.2
20210724210002 90 308 7.0 19.0 0.00 0.01 0.01 26 1013.3
20210724205502 90 263 8.0 19.0 0.00 0.01 0.01 26 1013.4
20210724205001 90 360 5.0 14.0 0.00 0.01 0.01 26 1013.3
20210724204103 90 263 5.0 20.0 0.00 0.01 0.01 26 1013.4
20210724203606 90 288 5.0 20.0 0.00 0.01 0.01 28 1013.5
20210724203308 89 319 7.0 16.0 0.00 0.01 0.01 27 1013.5
20210724202628 89 275 8.0 17.0 0.00 0.01 0.01 28 1013.5
20210724202059 89 292 10.0 17.0 0.00 0.01 0.01 27 1013.6
20210724201736 90 240 6.0 20.0 0.00 0.01 0.01 27 1013.5
20210724201117 89 254 10.0 20.0 0.00 0.01 0.01 27 1013.6
20210724200558 90 305 7.0 13.0 0.00 0.01 0.01 29 1013.7
20210724200152 89 272 8.0 13.0 0.00 0.01 0.01 28 1013.6
20210724195557 89 278 7.0 13.0 0.00 0.01 0.01 27 1013.7
20210724195057 89 261 4.0 13.0 0.00 0.01 0.01 30 1013.7
20210724194633 89 236 5.0 15.0 0.00 0.01 0.01 28 1013.7
20210724194059 88 265 8.0 15.0 0.00 0.01 0.01 29 1013.8
20210724193618 89 306 6.0 13.0 0.00 0.01 0.01 28 1013.8
20210724193228 89 276 6.0 16.0 0.00 0.01 0.01 28 1013.7
20210724192603 89 267 8.0 16.0 0.00 0.01 0.01 28 1013.8
20210724192055 88 288 4.0 14.0 0.00 0.01 0.01 29 1013.8
20210724191640 88 315 7.0 14.0 0.00 0.01 0.01 27 1013.7
20210724191053 88 272 5.0 12.0 0.00 0.01 0.01 27 1013.8
20210724190600 88 253 3.0 14.0 0.00 0.01 0.01 28 1014.0
20210724190132 88 269 4.0 14.0 0.00 0.01 0.01 30 1013.9
20210724185553 88 282 4.0 11.0 0.00 0.01 0.01 28 1013.9
20210724185103 88 297 6.0 13.0 0.00 0.01 0.01 26 1013.9
20210724184606 88 340 7.0 13.0 0.00 0.01 0.01 26 1014.1
20210724184110 87 309 7.0 12.0 0.00 0.01 0.01 27 1014.1
20210724183600 88 268 4.0 13.0 0.00 0.01 0.01 27 1014.1
20210724183210 87 279 7.0 12.0 0.00 0.01 0.01 27 1014.3
20210724182600 86 262 5.0 16.0 0.00 0.01 0.01 26 1014.4
20210724182051 88 254 7.0 16.0 0.00 0.01 0.01 28 1014.4
20210724181722 88 267 6.0 13.0 0.00 0.01 0.01 30 1014.3
20210724181048 87 290 7.0 13.0 0.00 0.01 0.01 26 1014.4
20210724180548 87 256 6.0 12.0 0.00 0.01 0.01 27 1014.4
20210724180140 87 281 6.0 12.0 0.00 0.01 0.01 27 1014.4
20210724175547 86 293 6.0 12.0 0.00 0.01 0.01 27 1014.4
20210724175047 87 238 6.0 11.0 0.00 0.01 0.01 26 1014.4
20210724174605 86 267 6.0 11.0 0.00 0.01 0.01 25 1014.4
20210724174053 86 299 7.0 12.0 0.00 0.01 0.01 25 1014.4
20210724173550 86 252 6.0 12.0 0.00 0.01 0.01 24 1014.5
20210724173128 86 275 6.0 12.0 0.00 0.01 0.01 25 1014.5
20210724172617 86 257 3.0 11.0 0.00 0.01 0.01 26 1014.3
20210724172107 86 307 3.0 11.0 0.00 0.01 0.01 29 1014.4
20210724171556 85 281 4.0 11.0 0.00 0.01 0.01 28 1014.4
20210724171102 85 259 3.0 12.0 0.00 0.01 0.01 29 1014.4
20210724170545 85 255 6.0 12.0 0.00 0.01 0.01 28 1014.5
20210724170053 85 292 2.0 9.0 0.00 0.01 0.01 28 1014.5
20210724165537 84 261 4.0 9.0 0.00 0.01 0.01 25 1014.5
20210724165037 85 248 4.0 7.0 0.00 0.01 0.01 31 1014.5
20210724164545 84 298 2.0 9.0 0.00 0.01 0.01 28 1014.5
20210724164040 84 250 3.0 9.0 0.00 0.01 0.01 31 1014.6
20210724163533 84 260 3.0 10.0 0.00 0.01 0.01 33 1014.5
20210724163047 83 290 3.0 10.0 0.00 0.01 0.01 34 1014.5
20210724162530 83 252 4.0 9.0 0.00 0.01 0.01 32 1014.4
20210724162028 83 327 2.0 7.0 0.00 0.01 0.01 37 1014.3
20210724161609 82 262 3.0 7.0 0.00 0.01 0.01 37 1014.3
20210724161027 82 264 2.0 7.0 0.00 0.01 0.01 40 1014.3
20210724160524 82 309 1.0 5.0 0.00 0.01 0.01 40 1014.3
20210724160028 82 286 3.0 5.0 0.00 0.01 0.01 41 1014.2
20210724155522 81 303 3.0 7.0 0.00 0.01 0.01 45 1014.2
20210724155020 81 299 3.0 7.0 0.00 0.01 0.01 41 1014.2
20210724154553 80 315 3.0 6.0 0.00 0.01 0.01 43 1014.2
20210724154018 80 287 2.0 5.0 0.00 0.01 0.01 44 1014.2
20210724153541 79 287 3.0 6.0 0.00 0.01 0.01 45 1014.2
20210724153111 79 321 1.0 5.0 0.00 0.01 0.01 49 1014.1
20210724152515 79 303 1.0 4.0 0.00 0.01 0.01 50 1014.1
20210724152033 79 13 1.0 4.0 0.00 0.01 0.01 53 1014.2
20210724151611 78 13 1.0 3.0 0.00 0.01 0.01 53 1014.1
20210724151010 77 13 2.0 4.0 0.00 0.01 0.01 52 1014.1
20210724150527 77 12 1.0 4.0 0.00 0.01 0.01 53 1014.0
20210724150008 76 348 1.0 4.0 0.00 0.01 0.01 55 1013.9
20210724145511 75 348 2.0 4.0 0.00 0.01 0.01 56 1014.0
20210724145004 75 272 1.0 3.0 0.00 0.01 0.01 58 1013.9
20210724144003 74 272 0.0 4.0 0.00 0.01 0.01 62 1013.7
20210724143502 74 274 2.0 4.0 0.00 0.01 0.01 63 1013.7
20210724142604 73 274 1.0 4.0 0.00 0.01 0.01 65 1013.7
20210724142107 73 267 2.0 4.0 0.00 0.01 0.01 64 1013.6
20210724141754 73 269 2.0 4.0 0.00 0.01 0.01 64 1013.5
20210724141109 73 275 1.0 6.0 0.00 0.01 0.01 65 1013.5
20210724140558 72 275 3.0 6.0 0.00 0.01 0.01 65 1013.5
20210724140239 72 296 2.0 5.0 0.00 0.01 0.01 65 1013.4
20210724135626 71 271 3.0 6.0 0.00 0.01 0.01 64 1013.4
20210724135123 71 315 2.0 6.0 0.00 0.01 0.01 69 1013.3
20210724134803 71 304 3.0 5.0 0.00 0.01 0.01 68 1013.4
20210724134104 70 301 2.0 5.0 0.00 0.01 0.01 68 1013.3
20210724133624 70 297 1.0 5.0 0.00 0.01 0.01 69 1013.4
20210724133239 70 304 2.0 5.0 0.00 0.01 0.01 69 1013.4
20210724132556 70 281 3.0 6.0 0.00 0.01 0.01 71 1013.4
20210724132059 69 287 2.0 5.0 0.00 0.01 0.01 71 1013.3
20210724131747 69 313 3.0 5.0 0.00 0.01 0.01 73 1013.2
20210724131109 69 281 2.0 4.0 0.00 0.01 0.01 72 1013.1
20210724130600 69 281 1.0 4.0 0.00 0.01 0.01 74 1013.1
20210724130207 68 280 1.0 4.0 0.00 0.01 0.01 74 1013.0
20210724125549 68 281 1.0 4.0 0.00 0.01 0.01 74 1012.9
20210724125103 68 281 1.0 6.0 0.00 0.01 0.01 76 1012.9
20210724124630 68 280 2.0 6.0 0.00 0.01 0.01 76 1012.9
20210724124047 67 277 2.0 5.0 0.00 0.01 0.01 75 1012.8
20210724123546 67 273 3.0 5.0 0.00 0.01 0.01 75 1012.8
20210724123206 67 300 2.0 5.0 0.00 0.01 0.01 76 1012.7
20210724122544 67 300 2.0 5.0 0.00 0.01 0.01 76 1012.6
20210724122045 67 293 2.0 5.0 0.00 0.01 0.01 75 1012.6
20210724121709 67 296 2.0 5.0 0.00 0.01 0.01 76 1012.6
20210724121045 67 275 1.0 6.0 0.00 0.01 0.01 77 1012.5
20210724120620 67 298 2.0 4.0 0.00 0.01 0.01 77 1012.5
20210724120059 67 299 2.0 4.0 0.00 0.01 0.01 78 1012.3
20210724115540 67 300 2.0 4.0 0.00 0.01 0.01 79 1012.3
20210724115036 66 300 2.0 4.0 0.00 0.01 0.01 80 1012.2
20210724114713 67 307 2.0 8.0 0.00 0.01 0.01 80 1012.2
20210724114035 67 309 3.0 8.0 0.00 0.01 0.01 81 1012.1
20210724113537 67 306 2.0 4.0 0.00 0.01 0.01 81 1012.1
20210724113110 67 292 2.0 5.0 0.00 0.01 0.01 81 1012.0
20210724112537 67 292 1.0 5.0 0.00 0.01 0.01 81 1011.9
20210724112041 67 296 2.0 5.0 0.00 0.01 0.01 81 1011.8
20210724111556 67 289 2.0 4.0 0.00 0.01 0.01 82 1011.8
20210724111028 67 292 1.0 4.0 0.00 0.01 0.01 82 1011.8
20210724110527 68 292 2.0 4.0 0.00 0.01 0.01 82 1011.8
20210724110034 68 293 2.0 7.0 0.00 0.01 0.01 83 1011.7
20210724105534 68 296 2.0 7.0 0.00 0.01 0.01 84 1011.7
20210724105027 68 286 3.0 7.0 0.00 0.01 0.01 86 1011.6
20210724104544 69 275 3.0 7.0 0.00 0.01 0.01 87 1011.7
20210724104030 69 263 2.0 10.0 0.00 0.01 0.01 88 1011.5
20210724103546 69 292 3.0 10.0 0.00 0.01 0.01 89 1011.4
20210724103108 69 281 4.0 8.0 0.00 0.01 0.01 92 1011.3
20210724102520 69 253 4.0 8.0 0.00 0.01 0.01 92 1011.2
20210724102017 69 268 4.0 10.0 0.00 0.01 0.01 92 1011.2
20210724101526 70 279 5.0 10.0 0.01 0.01 0.01 92 1011.2
20210724101015 70 272 5.0 9.0 0.01 0.01 0.01 92 1011.1
20210724100514 70 304 5.0 9.0 0.01 0.01 0.01 91 1011.1
20210724100038 70 259 4.0 11.0 0.01 0.01 0.01 91 1011.1
20210724095519 70 261 6.0 11.0 0.01 0.01 0.01 91 1011.0
20210724095012 70 261 5.0 10.0 0.01 0.01 0.01 91 1011.0
20210724094543 70 252 5.0 8.0 0.01 0.01 0.01 91 1011.1
20210724094012 70 264 3.0 8.0 0.01 0.01 0.01 91 1011.0
20210724093517 70 257 4.0 8.0 0.01 0.01 0.01 92 1011.0
20210724093023 70 261 3.0 7.0 0.01 0.01 0.01 91 1010.9
20210724092526 70 248 3.0 7.0 0.01 0.01 0.01 92 1010.8
20210724092018 70 243 3.0 8.0 0.01 0.01 0.01 92 1010.7
20210724091532 70 205 3.0 8.0 0.00 0.00 0.00 91 1010.8
20210724091008 70 252 2.0 5.0 0.00 0.00 0.00 91 1010.7
20210724090508 70 243 2.0 4.0 0.00 0.00 0.00 92 1010.7
20210724090008 70 187 0.0 2.0 0.00 0.00 0.00 92 1010.7
20210724085506 70 185 0.0 2.0 0.00 0.00 0.00 91 1010.5
20210724085008 71 185 0.0 4.0 0.00 0.00 0.00 91 1010.4
20210724084545 71 185 0.0 4.0 0.00 0.00 0.00 91 1010.4
20210724084005 71 185 2.0 6.0 0.00 0.00 0.00 91 1010.5
20210724083504 71 194 1.0 6.0 0.00 0.00 0.00 91 1010.4
20210724083005 72 238 2.0 4.0 0.00 0.00 0.00 91 1010.5
20210724082508 72 239 1.0 2.0 0.00 0.00 0.00 91 1010.5
20210724082005 72 239 0.0 2.0 0.00 0.00 0.00 91 1010.5
20210724081501 72 239 0.0 2.0 0.00 0.00 0.00 90 1010.5
20210724081001 72 239 0.0 5.0 0.00 0.00 0.00 89 1010.5
20210724080501 73 239 1.0 5.0 0.00 0.00 0.00 89 1010.7
20210724075600 72 213 0.0 4.0 0.00 0.00 0.00 89 1010.5
20210724075059 73 212 0.0 4.0 0.00 0.00 0.00 88 1010.5
20210724074722 73 213 1.0 6.0 0.00 0.00 0.00 88 1010.5
20210724074100 73 255 0.0 6.0 0.00 0.00 0.00 87 1010.7
20210724073604 74 254 1.0 5.0 0.00 0.00 0.00 87 1010.7
20210724073237 74 254 1.0 9.0 0.00 0.00 0.00 85 1010.5
20210724072554 75 248 2.0 9.0 0.00 0.00 0.00 82 1010.3
20210724072105 75 262 2.0 7.0 0.00 0.00 0.00 80 1010.2
20210724071711 76 260 3.0 8.0 0.00 0.00 0.00 78 1009.9
20210724071048 77 226 2.0 8.0 0.00 0.00 0.00 76 1009.9
20210724070547 78 253 2.0 6.0 0.00 0.00 0.00 75 1009.8
20210724070130 77 236 2.0 6.0 0.00 0.00 0.00 75 1009.7
20210724065553 77 249 1.0 14.0 0.00 0.00 0.00 76 1009.5
20210724065044 78 258 3.0 14.0 0.00 0.00 0.00 75 1009.4
20210724064627 80 239 6.0 13.0 0.00 0.00 0.00 72 1009.5
20210724064110 81 260 3.0 8.0 0.00 0.00 0.00 64 1009.6
20210724063547 81 304 2.0 10.0 0.00 0.00 0.00 65 1009.1
20210724063126 80 306 3.0 10.0 0.00 0.00 0.00 67 1008.6
20210724062542 80 344 3.0 5.0 0.00 0.00 0.00 71 1008.4
20210724062055 79 355 1.0 5.0 0.00 0.00 0.00 75 1008.3
20210724061717 79 338 2.0 8.0 0.00 0.00 0.00 77 1008.5
20210724061035 79 355 2.0 8.0 0.00 0.00 0.00 76 1007.9
20210724060537 80 15 4.0 8.0 0.00 0.00 0.00 74 1007.5
20210724060131 80 20 3.0 8.0 0.00 0.00 0.00 74 1007.4
20210724055534 80 18 3.0 9.0 0.00 0.00 0.00 75 1007.6
20210724055034 80 17 3.0 9.0 0.00 0.00 0.00 76 1007.7
20210724054612 80 5 4.0 8.0 0.00 0.00 0.00 78 1007.5
20210724054044 80 355 3.0 6.0 0.00 0.00 0.00 82 1007.7
20210724053532 80 333 1.0 5.0 0.00 0.00 0.00 84 1007.7
20210724053203 80 5 1.0 5.0 0.00 0.00 0.00 84 1007.8
20210724052546 80 36 2.0 4.0 0.00 0.00 0.00 85 1007.6
20210724052029 80 40 0.0 5.0 0.00 0.00 0.00 87 1007.6
20210724051550 80 40 1.0 5.0 0.00 0.00 0.00 90 1007.1
20210724051027 80 15 1.0 4.0 0.00 0.00 0.00 91 1006.9
20210724050525 80 15 2.0 5.0 0.00 0.00 0.00 90 1007.5
20210724050109 80 15 1.0 5.0 0.00 0.00 0.00 90 1007.8
20210724045524 80 16 1.0 3.0 0.00 0.00 0.00 89 1007.7
20210724045033 81 16 1.0 3.0 0.00 0.00 0.00 89 1007.5
20210724044559 81 16 0.0 0.0 0.00 0.00 0.00 89 1007.2
20210724044022 81 16 0.0 1.0 0.00 0.00 0.00 89 1007.3
20210724043521 81 16 0.0 2.0 0.00 0.00 0.00 89 1007.5
20210724043035 81 16 0.0 3.0 0.00 0.00 0.00 89 1007.6
20210724042521 81 16 0.0 3.0 0.00 0.00 0.00 88 1007.8
20210724042028 81 16 0.0 5.0 0.00 0.00 0.00 89 1008.0
20210724041528 81 16 0.0 5.0 0.00 0.00 0.00 90 1008.0
20210724041020 81 254 0.0 3.0 0.00 0.00 0.00 90 1008.3
20210724040535 81 253 0.0 0.0 0.00 0.00 0.00 89 1008.5
20210724040025 81 253 0.0 0.0 0.00 0.00 0.00 88 1008.5
20210724035540 81 253 0.0 0.0 0.00 0.00 0.00 88 1008.6
20210724035039 81 253 0.0 0.0 0.00 0.00 0.00 89 1008.6
20210724034545 81 253 0.0 0.0 0.00 0.00 0.00 89 1008.5
20210724034040 81 253 0.0 0.0 0.00 0.00 0.00 88 1008.4
20210724033520 82 253 0.0 0.0 0.00 0.00 0.00 88 1008.3
20210724033058 82 253 0.0 0.0 0.00 0.00 0.00 87 1008.2
20210724032522 82 253 0.0 0.0 0.00 0.00 0.00 87 1008.2
20210724032033 82 253 0.0 0.0 0.00 0.00 0.00 87 1008.2
20210724031527 82 253 0.0 0.0 0.00 0.00 0.00 86 1008.2
20210724031018 82 253 0.0 0.0 0.00 0.00 0.00 86 1008.2
20210724030519 83 253 0.0 0.0 0.00 0.00 0.00 86 1008.2
20210724030029 83 253 0.0 0.0 0.00 0.00 0.00 86 1008.0
20210724025518 83 253 0.0 0.0 0.00 0.00 0.00 85 1007.9
20210724025018 83 253 0.0 0.0 0.00 0.00 0.00 85 1007.7
20210724024531 83 253 0.0 0.0 0.00 0.00 0.00 84 1007.5
20210724024032 84 253 0.0 0.0 0.00 0.00 0.00 83 1007.7
20210724023517 85 253 0.0 0.0 0.00 0.00 0.00 82 1007.7
20210724023046 85 253 0.0 0.0 0.00 0.00 0.00 81 1007.8
20210724022517 85 253 0.0 0.0 0.00 0.00 0.00 80 1007.9
20210724022026 85 253 0.0 0.0 0.00 0.00 0.00 79 1007.9
20210724021521 85 253 0.0 0.0 0.00 0.00 0.00 79 1008.1
20210724021037 86 253 0.0 0.0 0.00 0.00 0.00 78 1008.0
20210724020516 86 253 0.0 0.0 0.00 0.00 0.00 78 1008.0
20210724020030 87 253 0.0 0.0 0.00 0.00 0.00 76 1008.1
20210724015523 87 253 0.0 0.0 0.00 0.00 0.00 75 1008.0
20210724015014 87 253 0.0 1.0 0.00 0.00 0.00 75 1008.0
20210724014627 87 253 0.0 3.0 0.00 0.00 0.00 76 1007.9
20210724014015 88 253 1.0 3.0 0.00 0.00 0.00 74 1007.8
20210724013514 88 253 0.0 2.0 0.00 0.00 0.00 73 1008.0
20210724013116 89 253 0.0 2.0 0.00 0.00 0.00 70 1008.0
20210724012514 89 253 1.0 2.0 0.00 0.00 0.00 69 1008.1
20210724012034 89 253 1.0 2.0 0.00 0.00 0.00 70 1008.0
20210724011513 89 253 0.0 2.0 0.00 0.00 0.00 69 1008.1
20210724011018 89 253 0.0 2.0 0.00 0.00 0.00 64 1008.1
20210724010513 90 253 0.0 1.0 0.00 0.00 0.00 63 1008.2
20210724010017 90 253 0.0 2.0 0.00 0.00 0.00 62 1008.2
20210724005515 91 253 0.0 2.0 0.00 0.00 0.00 62 1008.2
20210724005014 90 253 0.0 3.0 0.00 0.00 0.00 62 1008.3
20210724004608 90 253 0.0 3.0 0.00 0.00 0.00 63 1008.3
20210724004011 90 253 0.0 2.0 0.00 0.00 0.00 65 1008.3
20210724003510 90 253 0.0 2.0 0.00 0.00 0.00 64 1008.4
20210724003018 90 253 0.0 1.0 0.00 0.00 0.00 64 1008.3
20210724002513 91 253 0.0 2.0 0.00 0.00 0.00 63 1008.4
20210724002010 91 253 1.0 2.0 0.00 0.00 0.00 61 1008.4
20210724001512 91 253 0.0 2.0 0.00 0.00 0.00 61 1008.5
20210724001012 91 253 0.0 2.0 0.00 0.00 0.00 63 1008.4
20210724000512 92 253 0.0 5.0 0.00 0.00 0.00 63 1008.5
20210724000009 92 253 0.0 5.0 0.00 0.00 0.00 60 1008.5
20210723235507 91 252 0.0 4.0 0.00 0.00 0.00 63 1008.6
20210723235007 92 252 0.0 6.0 0.00 0.00 0.00 61 1008.7
20210723234525 92 243 2.0 6.0 0.00 0.00 0.00 58 1008.6
20210723234006 93 263 1.0 7.0 0.00 0.00 0.00 57 1008.7
20210723233505 94 263 2.0 7.0 0.00 0.00 0.00 56 1008.8
20210723233013 94 319 3.0 5.0 0.00 0.00 0.00 57 1008.8
20210723232505 93 271 2.0 4.0 0.00 0.00 0.00 57 1008.8
20210723232004 93 269 1.0 4.0 0.00 0.00 0.00 59 1008.8
20210723231503 93 268 1.0 6.0 0.00 0.00 0.00 58 1008.8
20210723231002 93 268 3.0 6.0 0.00 0.00 0.00 56 1008.8
20210723230502 93 263 1.0 8.0 0.00 0.00 0.00 57 1008.8
20210723230001 93 266 4.0 8.0 0.00 0.00 0.00 57 1008.8
20210723225503 93 279 2.0 9.0 0.00 0.00 0.00 57 1008.9
20210723225101 93 271 4.0 9.0 0.00 0.00 0.00 56 1008.9
20210723224737 93 256 2.0 8.0 0.00 0.00 0.00 57 1008.9
20210723224058 93 279 4.0 9.0 0.00 0.00 0.00 56 1008.9
20210723223644 93 256 3.0 10.0 0.00 0.00 0.00 58 1009.0
20210723223211 93 257 3.0 10.0 0.00 0.00 0.00 55 1008.9
20210723222605 94 243 3.0 9.0 0.00 0.00 0.00 57 1008.9
20210723222057 94 248 4.0 9.0 0.00 0.00 0.00 56 1008.9
20210723221636 95 253 5.0 9.0 0.00 0.00 0.00 54 1008.9
20210723221110 95 264 3.0 7.0 0.00 0.00 0.00 54 1008.9
20210723220609 94 164 1.0 9.0 0.00 0.00 0.00 59 1009.0
20210723220156 94 278 4.0 9.0 0.00 0.00 0.00 57 1009.0
20210723215557 94 279 2.0 9.0 0.00 0.00 0.00 55 1009.0
20210723215054 93 318 4.0 11.0 0.00 0.00 0.00 56 1009.1
20210723214624 94 256 5.0 11.0 0.00 0.00 0.00 54 1009.1